ECMWFNIL_925_temp_021.txt.gz
Temp
20 20 19 19 19 19 19 19 19 19 19 18 18 17 17 17 17 17 17 17 17 17 17 17 17 17 17 17 17 17 17 17 17 17 18 18 18 19 19 19 19 19
20 20 19 19 19 19 19 19 19 19 18 18 18 17 17 17 17 17 17 17 17 17 17 17 17 17 17 17 17 17 17 17 17 17 18 18 18 19 19 19 19 19
19 19 19 19 19 19 19 19 19 18 18 18 17 17 17 17 17 17 17 17 17 17 17 17 17 17 17 17 17 17 17 17 17 17 18 18 18 18 19 19 19 19
19 19 19 19 19 19 19 19 18 18 18 17 17 17 17 17 17 17 17 17 17 17 17 17 17 17 17 17 17 17 17 17 17 17 18 18 18 18 18 18 18 18
19 19 19 19 19 19 19 18 18 18 18 17 17 17 17 17 17 17 17 17 17 17 17 17 17 17 17 17 17 17 17 17 17 17 17 17 18 18 18 18 18 18
19 19 19 19 19 18 18 18 18 18 17 17 17 17 17 17 17 17 16 17 17 17 17 17 17 17 17 17 17 17 17 17 17 17 17 17 17 18 18 18 18 18
19 19 18 18 18 18 18 17 17 17 17 17 17 17 17 17 17 17 17 17 17 17 17 17 17 17 17 17 17 17 17 17 17 17 17 17 17 17 18 18 18 18
18 18 18 18 18 18 17 17 17 17 17 17 17 17 17 17 17 17 17 17 17 17 17 17 17 17 17 17 17 17 17 17 17 17 17 17 17 17 17 17 18 18
18 18 18 18 17 17 17 17 17 17 17 17 17 17 17 17 17 17 17 17 17 17 17 17 17 17 17 17 17 17 17 17 17 17 17 17 17 17 17 18 18 18
18 18 18 17 17 17 17 17 16 17 17 17 17 17 17 17 17 17 17 17 17 17 17 17 17 17 17 17 17 17 18 18 18 18 18 18 18 17 17 18 18 18
18 17 17 17 17 17 17 17 17 17 17 17 17 17 17 17 18 18 18 18 17 17 17 17 17 17 17 17 17 17 18 18 18 18 18 18 18 18 17 17 17 17
18 17 17 17 17 17 17 17 18 17 17 17 17 17 17 17 18 18 18 18 18 18 17 17 17 17 17 17 17 17 17 17 18 18 18 18 18 18 18 17 17 17
17 17 17 17 17 17 17 17 17 18 18 18 17 18 17 18 18 18 18 18 18 18 17 17 17 17 17 17 17 17 17 17 17 18 18 18 18 18 17 17 17 17
17 17 17 17 17 17 17 17 17 17 17 17 17 17 18 18 18 18 18 18 18 18 18 17 17 17 17 17 17 17 17 17 17 17 17 17 17 17 17 17 17 17
17 17 17 17 17 17 17 17 17 17 17 17 17 17 18 18 18 18 18 18 18 18 18 17 17 17 17 17 17 17 17 17 17 17 17 17 17 17 17 17 17 17
16 16 16 16 17 17 17 17 17 17 17 17 17 17 18 18 18 18 18 18 18 18 18 18 18 17 17 17 17 17 17 17 17 17 17 17 17 17 17 17 17 17
16 16 16 16 16 16 16 16 16 17 17 17 17 17 17 17 18 18 18 18 18 18 18 18 18 18 17 17 17 17 17 17 17 17 17 17 17 17 17 17 17 17
16 16 16 16 16 16 16 16 16 16 16 16 17 17 17 17 17 17 18 18 17 18 18 18 18 18 18 18 17 17 17 17 17 17 17 17 17 17 17 16 16 16
16 16 16 16 16 16 16 16 16 16 16 16 16 16 17 17 17 17 17 17 17 17 17 17 17 17 18 18 18 17 17 17 17 17 17 17 16 17 16 16 16 16
15 15 15 15 15 15 15 15 16 16 16 16 16 16 16 16 16 16 16 16 17 17 17 17 17 17 17 17 17 17 17 17 17 16 16 16 16 16 16 16 16 16
14 15 15 15 15 15 15 15 15 15 15 15 16 16 16 16 16 16 16 16 16 16 16 16 16 16 16 17 17 17 16 16 16 16 16 16 15 15 15 14 14 15
14 14 14 15 15 15 15 15 15 15 15 15 15 15 15 16 16 15 15 16 16 15 15 15 15 16 16 16 16 16 16 16 15 15 15 15 15 14 14 13 13 14
13 13 14 14 14 14 14 14 14 15 15 15 15 15 15 15 15 15 15 15 15 15 15 15 15 15 15 16 16 16 16 15 15 15 15 15 14 14 14 13 13 14
12 12 12 13 13 13 13 13 14 14 14 14 14 15 15 15 15 15 15 15 15 15 15 15 15 15 15 15 15 15 15 15 15 14 14 14 13 13 13 14 13 13
11 11 11 12 12 12 12 13 13 13 13 14 14 14 14 15 15 15 15 15 15 15 15 15 14 14 14 15 15 15 15 14 14 13 13 12 13 13 13 13 13 13
10 10 10 10 10 11 11 11 12 12 12 13 13 13 13 14 14 14 14 14 15 15 15 15 14 14 14 14 14 14 14 14 14 13 13 12 12 12 12 12 12 12

ECMWFNIL_925_temp_024.txt.gz
Temp
20 19 19 19 19 19 19 18 18 18 18 18 18 17 17 17 17 17 17 17 17 17 17 17 17 17 17 17 17 17 17 17 17 17 17 17 17 17 17 17 17 17
19 19 19 19 19 19 19 18 18 18 18 18 18 17 17 17 17 17 17 17 17 17 17 17 17 17 17 17 17 17 16 17 17 17 17 18 18 18 18 18 18 18
19 19 19 19 19 19 19 19 18 18 18 17 17 17 17 17 17 17 17 17 17 17 17 17 17 17 17 17 16 16 16 17 17 18 18 18 18 18 18 18 18 18
19 19 19 19 19 19 19 19 18 18 17 17 17 17 17 17 17 17 17 17 17 17 17 17 17 17 17 17 17 17 17 17 18 18 18 18 18 18 18 19 19 19
19 19 19 19 19 19 19 18 18 17 17 17 17 17 17 17 16 16 16 17 17 17 17 17 17 17 17 17 17 17 17 17 18 18 18 18 18 18 18 19 19 19
19 19 19 19 19 19 18 18 18 17 17 17 17 17 17 17 16 16 16 16 17 17 17 17 17 17 17 17 17 17 17 17 17 18 18 18 18 18 18 18 19 19
19 19 19 19 18 18 18 18 17 17 17 17 17 17 17 16 16 16 16 16 17 17 17 17 17 17 17 17 17 17 17 17 17 17 17 17 18 18 18 18 18 18
19 19 19 18 18 18 18 17 17 17 17 17 17 16 17 17 16 16 16 16 17 17 17 17 17 17 17 17 17 17 17 17 17 17 17 17 18 18 17 18 18 18
19 19 18 18 18 17 17 17 17 17 17 17 17 17 17 17 17 16 16 16 17 17 17 17 17 17 17 17 17 17 17 17 17 17 17 17 18 17 17 17 17 18
18 18 18 18 17 17 17 17 17 17 17 17 17 17 17 17 17 17 16 16 17 17 17 17 17 17 17 17 17 17 17 17 17 17 17 17 17 17 17 17 18 18
18 18 18 18 17 17 17 17 17 17 17 17 17 17 17 17 17 17 17 17 17 17 17 17 17 17 17 17 17 17 17 17 17 17 17 17 17 17 17 17 18 18
17 18 17 17 17 17 17 17 17 16 17 17 17 17 17 17 17 17 17 17 17 17 17 17 17 17 17 17 17 17 17 17 17 17 17 17 17 17 17 17 18 18
16 16 16 17 17 17 17 17 17 17 17 17 17 17 17 17 17 17 17 17 17 17 17 17 17 17 17 17 17 17 17 17 17 17 17 17 17 17 18 18 18 18
15 15 15 17 17 17 17 17 17 17 17 17 17 17 17 17 17 17 17 17 17 17 17 17 17 17 17 17 17 17 17 17 17 17 17 17 17 17 18 18 18 18
16 15 15 16 17 17 17 17 17 17 17 17 17 17 17 17 17 18 17 17 17 17 17 17 17 17 17 17 17 17 17 17 17 17 17 17 17 17 17 17 17 17
16 15 15 15 16 16 17 16 17 17 17 17 17 17 17 17 17 18 18 17 17 17 17 17 17 17 17 17 17 17 17 17 17 17 17 17 17 17 17 17 17 17
15 15 14 14 14 15 16 16 16 16 16 16 16 16 17 17 17 17 17 17 18 17 17 17 17 17 17 17 17 17 17 17 17 17 17 17 17 17 17 17 17 17
14 14 14 14 13 13 14 15 16 16 16 16 16 16 16 16 17 17 17 17 17 17 17 17 17 17 17 17 17 17 17 17 17 17 17 17 17 17 17 17 17 17
13 14 14 14 14 14 14 15 15 15 15 15 16 16 16 16 16 16 16 16 16 17 17 17 17 17 17 17 17 17 17 17 17 17 17 17 17 17 17 16 16 16
13 14 14 14 14 14 14 14 14 14 15 15 15 15 15 16 15 15 15 15 16 16 16 16 16 17 17 17 17 17 17 17 17 17 17 17 17 17 16 16 16 16
12 13 13 13 13 13 14 14 14 14 14 14 14 14 15 15 15 15 15 15 15 15 15 15 16 16 16 16 16 17 17 17 17 17 16 16 16 16 16 16 16 16
11 12 12 12 12 13 13 13 13 13 13 13 14 14 14 14 14 14 14 14 14 14 15 15 15 15 16 16 16 16 16 16 16 16 16 16 16 16 16 16 16 16
11 11 11 11 11 11 11 11 11 12 12 12 13 13 13 13 13 14 14 14 14 14 14 15 15 15 15 15 15 15 15 15 15 15 15 15 15 15 16 16 16 15
10 11 10 10 10 10 10 10 10 11 11 11 11 12 12 12 12 13 13 13 14 14 14 14 14 15 15 15 15 15 15 14 14 14 14 15 15 15 15 15 15 14
9 9 9 9 9 9 9 9 10 10 10 10 11 11 11 11 12 12 12 13 13 13 13 13 14 14 14 15 15 15 15 14 14 14 13 14 14 14 14 14 14 14
8 8 8 8 9 9 9 9 9 9 9 9 10 10 10 11 11 11 12 12 12 12 12 13 13 13 14 14 14 15 15 14 14 14 13 13 14 14 14 14 13 13

ECMWFNIL_925_temp_027.txt.gz
Temp
19 19 19 19 18 18 18 18 17 17 17 17 17 17 17 17 17 17 17 17 17 17 17 17 17 17 17 17 17 17 17 17 17 17 17 17 17 17 17 16 16 17
19 19 19 19 18 18 18 18 18 18 18 17 17 17 17 17 17 17 17 17 17 17 17 17 17 17 17 17 16 17 17 17 17 17 17 17 17 17 17 17 17 17
19 19 19 19 18 18 18 18 18 18 18 17 17 17 17 17 17 17 17 17 17 17 17 16 16 16 16 16 16 16 16 16 16 17 17 17 17 17 17 17 17 17
19 19 19 19 18 18 18 18 18 18 17 17 17 17 17 17 17 17 17 17 17 17 17 16 16 16 16 16 16 16 16 16 17 17 17 18 18 18 18 18 18 18
19 19 19 18 18 18 18 18 18 17 17 17 17 16 16 16 16 16 17 17 17 17 17 16 16 16 16 16 16 16 16 17 17 18 18 18 18 18 18 18 18 19
19 19 19 19 18 18 18 18 18 17 17 17 17 16 16 16 16 16 16 17 17 17 17 17 16 16 16 16 16 17 17 17 17 18 18 18 18 18 18 18 19 19
19 19 19 19 19 18 18 18 18 17 17 17 17 17 16 16 16 16 16 16 17 17 16 17 16 16 16 16 17 17 17 17 17 18 18 18 18 18 18 18 19 19
19 19 19 19 19 18 18 18 18 17 17 17 17 17 16 16 16 16 16 16 16 17 17 17 17 17 17 17 17 17 17 17 17 18 18 18 18 18 18 18 18 18
19 19 19 19 18 18 18 18 17 17 17 17 17 16 16 16 16 16 16 16 16 16 17 17 17 17 17 17 17 17 17 17 17 17 17 18 18 18 18 18 18 18
18 18 18 18 18 18 18 17 17 17 17 17 16 16 16 16 16 16 16 16 16 16 16 16 16 16 17 17 17 17 17 17 17 17 17 17 17 17 17 17 18 18
16 17 17 18 18 17 17 17 17 17 17 17 16 16 16 16 16 16 16 16 16 16 16 16 16 16 16 16 16 17 17 16 17 17 17 17 17 17 17 17 17 18
16 16 17 17 17 17 17 17 17 17 16 16 16 17 16 16 16 16 16 16 16 16 16 16 16 16 16 16 16 16 16 16 16 17 17 17 17 17 17 17 17 18
16 16 16 16 17 17 17 16 16 16 16 16 16 16 16 16 17 17 17 16 16 16 16 16 17 16 16 16 16 16 16 16 16 17 17 17 17 17 17 17 17 17
15 15 16 16 16 16 16 16 16 16 16 16 16 16 16 16 16 16 17 17 17 16 16 17 17 17 17 17 17 17 17 17 17 17 17 17 17 17 17 17 17 17
15 15 15 16 16 16 16 16 16 16 16 16 16 16 16 17 17 17 17 17 17 17 17 17 17 17 17 17 17 17 17 17 17 17 17 17 17 17 17 17 17 17
14 15 15 16 16 16 16 16 16 16 16 16 16 16 16 16 17 17 17 17 17 17 17 17 17 17 17 17 17 17 17 17 17 17 17 17 17 17 17 17 17 17
13 14 14 14 14 15 15 16 15 15 16 16 16 16 16 16 17 17 17 17 17 17 17 17 17 17 17 17 17 17 17 17 17 17 17 17 17 17 17 17 17 17
13 13 13 13 14 14 14 14 14 14 15 15 15 15 16 16 16 16 16 17 17 17 17 17 17 17 17 17 17 17 17 17 17 17 17 17 17 17 17 17 17 17
12 12 12 13 13 13 13 13 14 14 14 14 14 14 15 15 15 15 15 16 16 16 16 16 17 17 17 17 17 17 17 17 17 17 17 17 17 17 17 17 17 17
11 11 11 11 12 12 13 13 13 13 13 13 13 14 14 14 14 14 14 14 15 15 15 15 16 16 16 16 16 16 16 16 16 16 16 17 17 17 17 17 17 17
10 10 10 10 11 11 12 12 12 12 12 13 13 13 14 14 14 14 14 14 14 14 14 14 14 15 15 15 16 16 16 16 16 16 16 16 16 16 17 17 17 17
9 9 9 9 9 9 10 10 11 11 12 12 12 13 13 13 13 13 13 14 14 14 14 14 14 14 14 14 14 14 15 15 15 15 15 16 16 16 16 16 16 16
8 8 8 8 8 8 8 9 10 10 11 11 12 12 12 13 13 13 13 13 13 13 14 14 14 14 14 13 13 13 13 13 14 14 15 15 15 15 15 16 16 16
8 8 8 8 8 8 8 8 8 9 9 10 10 11 11 11 11 12 12 12 12 13 13 13 14 14 13 13 13 13 12 12 12 13 13 14 14 14 15 15 15 15
8 8 8 8 8 7 7 7 8 8 8 9 9 10 10 10 10 11 11 11 11 11 12 12 13 13 13 13 13 13 12 12 12 11 12 13 13 14 14 14 14 14
7 7 7 7 7 7 7 7 7 8 8 8 9 9 9 9 9 10 10 10 10 10 10 11 11 12 12 12 12 12 12 12 11 10 10 11 12 12 13 14 14 14

ECMWFNIL_925_temp_030.txt.gz
Temp
18 18 18 18 18 18 17 17 17 17 17 17 17 17 17 17 17 17 17 17 17 17 17 17 17 17 17 17 17 16 16 17 17 16 16 16 16 16 16 16 16 16
18 18 18 18 18 17 17 17 17 17 17 17 17 17 17 17 17 17 17 17 17 17 17 17 17 17 17 17 17 16 16 16 16 16 16 16 16 16 16 16 16 16
18 18 18 18 18 18 17 17 17 17 17 17 17 17 17 17 17 17 17 17 17 17 16 16 16 16 16 16 16 16 16 16 16 16 16 16 16 16 16 16 16 16
18 18 18 18 18 18 17 17 17 17 17 17 17 17 17 16 16 16 17 16 16 16 16 16 16 16 16 16 16 16 16 16 16 16 16 16 17 17 16 16 16 16
18 18 18 18 18 18 17 17 17 17 17 17 17 17 16 16 16 16 16 16 16 16 16 16 16 16 16 15 15 15 16 16 16 17 17 17 17 17 17 17 17 17
19 18 18 18 18 18 18 17 17 17 17 17 17 17 16 16 16 16 16 16 16 16 16 16 16 16 16 15 16 16 16 16 17 17 18 18 18 18 17 18 18 18
19 18 18 18 18 18 18 17 17 17 17 17 17 16 16 16 16 16 16 16 16 16 16 16 16 16 16 16 16 16 17 17 17 17 18 18 18 18 18 18 18 19
19 18 18 18 18 18 18 18 17 17 17 17 16 16 16 16 16 16 16 16 16 16 16 16 16 16 16 16 16 17 17 17 17 17 18 18 18 18 18 18 19 19
18 18 18 18 18 18 18 18 17 17 17 16 16 16 16 16 16 16 16 16 16 16 16 16 16 16 16 16 16 16 17 17 17 17 18 18 18 18 18 18 18 19
18 18 18 18 18 18 18 17 17 17 17 16 16 16 16 16 15 15 15 16 16 16 16 16 16 16 16 16 16 16 16 17 17 17 17 17 17 18 18 18 18 18
17 18 18 18 18 18 18 17 17 17 16 16 16 16 16 16 16 15 15 16 16 16 16 16 16 16 16 16 16 16 16 16 17 17 17 17 17 17 17 18 18 18
16 17 17 17 17 17 17 17 17 17 16 16 16 16 16 16 16 16 16 16 16 16 16 16 16 16 16 16 16 16 16 16 16 16 17 17 17 17 17 17 17 18
16 16 16 16 17 17 17 17 17 16 16 16 16 16 16 16 16 16 16 16 16 16 16 16 16 16 16 16 16 16 16 16 16 16 16 16 16 17 17 17 17 17
15 15 15 15 16 16 16 16 16 16 16 16 16 16 16 16 16 16 16 16 16 16 16 16 16 16 16 16 16 16 16 16 16 16 16 16 16 16 16 16 17 17
15 15 15 15 15 15 15 15 16 16 16 16 16 16 16 16 16 16 16 16 16 16 16 16 16 16 16 16 16 16 16 16 16 16 16 16 16 16 16 16 17 17
14 14 14 14 14 14 14 15 15 15 15 15 16 16 16 16 16 16 16 17 17 16 16 16 16 16 16 16 16 17 17 17 17 17 16 16 17 17 17 17 17 17
13 13 13 13 13 13 14 14 15 15 15 15 15 16 16 16 16 16 16 16 17 16 17 17 17 16 16 16 16 16 16 17 17 17 17 17 17 17 17 17 17 17
12 12 12 12 12 13 13 13 14 14 14 14 15 15 15 15 15 15 16 16 16 16 16 16 16 16 16 16 16 16 16 16 17 17 17 17 17 17 17 17 17 17
11 11 11 11 11 12 12 13 13 13 13 13 13 13 14 14 14 15 15 15 15 15 15 15 15 15 15 15 15 15 16 16 16 16 16 16 16 17 17 17 17 17
10 10 10 10 10 11 11 12 12 12 12 12 12 12 13 13 13 14 14 14 14 14 14 14 14 14 14 14 15 15 15 15 15 15 15 16 16 16 16 16 16 16
9 9 9 9 9 10 10 10 10 10 11 11 11 12 12 12 12 13 13 13 13 13 13 13 13 13 14 14 14 14 15 15 15 15 15 15 15 15 15 16 16 16
8 9 9 9 9 9 9 9 10 10 10 10 11 11 11 11 12 12 12 12 13 13 13 13 12 13 13 13 14 14 14 14 14 14 14 15 15 15 15 15 15 15
8 9 9 9 9 9 8 8 9 9 9 9 10 11 11 11 11 11 11 11 12 12 12 12 12 12 12 12 13 13 13 13 13 13 14 14 14 15 14 14 14 14
7 8 8 9 9 9 8 8 8 8 8 8 8 9 9 10 10 10 11 11 11 11 11 11 11 10 11 11 11 12 12 12 12 13 13 13 13 14 14 14 14 14
7 7 7 7 7 7 7 8 7 7 7 7 7 8 8 9 9 10 10 10 10 10 10 10 10 10 10 10 10 10 11 11 11 11 12 12 12 12 13 13 13 13
6 6 6 6 6 6 6 7 7 7 7 7 7 6 7 7 8 9 9 9 9 9 9 9 9 9 9 9 9 10 10 10 10 10 10 11 11 11 12 12 12 13

ECMWFNIL_925_temp_033.txt.gz
Temp
18 19 19 18 18 18 18 18 17 17 17 17 17 17 17 17 17 17 17 17 17 17 17 16 16 16 16 16 16 15 15 15 15 15 15 15 15 16 16 16 16 16
18 19 19 18 18 18 18 18 17 17 17 17 17 17 17 17 17 17 17 17 17 17 17 17 17 17 17 16 16 16 16 16 16 16 16 16 16 16 16 16 16 16
18 18 18 18 18 18 18 18 17 17 17 17 17 17 17 17 17 17 17 17 17 16 17 17 17 17 17 16 16 16 16 16 16 16 16 16 16 16 16 16 16 16
18 18 18 18 18 18 18 17 17 17 17 17 17 17 17 16 16 17 16 16 16 16 16 16 16 16 16 16 16 16 16 16 16 16 16 16 16 16 16 16 16 16
18 18 18 18 18 18 17 17 17 17 17 17 17 17 17 16 16 16 16 16 16 16 16 16 16 16 16 16 16 16 16 16 16 16 16 16 16 16 16 16 16 16
18 18 18 18 18 18 17 17 17 17 17 17 17 17 17 16 16 16 16 16 16 16 16 16 16 16 16 16 16 16 16 16 16 16 17 17 17 17 17 16 16 16
17 18 18 18 18 18 17 17 17 17 17 17 17 16 16 16 16 16 16 16 16 16 16 16 16 15 15 15 16 16 16 16 17 17 17 17 17 17 17 17 16 16
18 18 18 18 18 18 17 17 17 17 17 17 16 16 16 16 16 16 16 16 16 16 16 16 16 16 16 16 16 17 17 17 17 18 18 18 18 18 18 17 17 17
18 18 18 18 18 18 17 17 17 17 17 16 16 16 16 16 16 16 16 16 16 16 16 16 16 16 16 16 16 17 17 17 17 17 18 18 18 18 18 18 18 18
18 18 18 18 18 18 17 17 17 17 17 16 16 16 16 15 15 15 16 16 16 16 16 16 16 16 16 16 16 16 17 17 17 17 17 18 18 18 18 18 18 19
17 17 17 17 17 18 17 17 17 16 16 16 16 16 16 15 15 15 15 16 16 16 16 16 16 16 16 16 16 16 16 17 17 17 17 17 17 18 18 18 18 18
17 17 17 17 17 17 17 17 17 16 16 16 16 16 16 16 15 15 15 16 16 16 16 16 16 16 16 16 16 16 16 16 16 17 17 17 17 17 17 18 18 18
16 16 16 16 17 17 17 16 16 16 16 16 16 16 16 16 16 16 16 16 16 16 16 16 16 16 16 16 16 16 16 16 16 16 16 17 17 17 17 17 17 17
15 15 16 16 16 16 16 15 16 16 16 16 16 16 16 16 16 16 16 16 16 16 16 16 16 16 16 16 16 16 16 16 16 16 16 16 16 16 17 17 17 17
14 15 15 15 15 15 15 15 15 15 15 16 16 16 16 16 16 16 16 16 16 16 16 16 16 16 16 16 16 16 16 16 16 16 16 16 16 16 16 16 17 17
13 13 14 14 14 14 14 14 14 15 15 15 15 16 16 16 16 16 16 16 16 16 15 15 15 16 16 16 16 16 16 16 16 16 16 16 16 16 16 16 16 17
12 13 13 13 13 13 13 13 14 14 15 15 15 15 15 16 16 16 16 16 16 15 15 15 15 15 15 15 15 15 15 16 16 16 16 16 16 16 17 17 17 17
11 12 12 12 12 12 13 13 13 13 14 14 14 14 15 15 15 15 15 15 15 15 14 14 14 14 14 15 15 15 15 15 15 16 16 16 16 16 16 16 16 16
11 11 11 11 11 12 12 12 13 13 13 13 13 13 13 14 14 14 14 14 14 14 14 14 14 14 14 14 15 15 15 16 15 16 16 16 16 16 16 16 16 16
10 10 10 10 10 11 11 12 12 12 12 12 12 12 12 13 12 13 13 13 13 13 13 13 13 13 13 14 14 15 15 15 15 15 15 15 15 15 15 15 15 15
9 10 9 9 10 10 11 11 11 11 11 11 11 11 11 11 11 11 11 11 12 12 12 12 12 12 13 13 14 14 14 15 15 15 15 15 15 15 15 15 15 15
9 9 9 9 9 10 10 10 10 10 10 10 11 11 11 10 10 10 10 10 11 11 12 11 11 12 12 13 13 13 14 14 14 14 14 14 14 14 14 14 14 14
8 9 9 9 9 10 10 10 10 9 9 10 10 10 10 10 9 9 9 9 10 10 11 11 11 11 11 12 12 13 13 13 13 13 13 13 13 13 13 13 13 13
8 8 8 8 8 9 8 8 9 9 9 9 9 10 10 9 9 9 9 9 9 9 9 10 10 10 10 11 11 12 12 12 12 12 12 12 13 13 13 13 13 13
7 7 8 7 7 7 7 7 8 8 8 8 8 8 9 9 9 9 8 8 8 8 8 9 9 9 10 10 11 11 11 11 11 11 11 12 12 12 13 13 13 13
6 6 7 6 6 6 6 6 6 7 7 7 7 7 7 8 8 8 7 7 7 7 7 8 8 8 9 9 9 10 10 10 10 10 10 10 10 11 11 11 11 12

ECMWFNIL_925_temp_036.txt.gz
Temp
19 19 19 19 19 19 19 19 19 19 19 19 19 19 18 18 17 17 17 17 17 17 17 17 17 16 17 16 16 16 16 16 16 16 16 16 16 16 15 16 16 16
19 19 19 19 19 19 19 19 19 19 19 19 19 18 18 17 17 17 17 17 17 17 17 17 17 16 17 17 16 16 16 16 16 16 16 16 16 16 16 16 16 16
19 19 19 19 19 19 19 18 18 18 18 18 18 18 17 17 17 17 17 17 18 17 17 17 17 17 17 17 16 16 16 16 16 16 17 17 16 16 16 17 17 16
18 19 19 19 19 18 18 18 18 18 18 18 18 17 17 17 17 17 17 17 17 17 17 17 17 17 17 17 17 17 17 16 17 17 17 17 16 16 17 17 17 17
18 18 19 19 19 18 18 18 18 18 18 18 17 17 17 17 17 17 17 17 17 17 17 17 17 17 17 17 17 17 17 17 17 17 17 18 17 17 17 17 17 17
18 18 18 18 18 18 18 18 18 18 18 17 17 17 17 17 17 17 17 17 17 17 17 17 17 17 17 17 17 17 17 17 17 17 18 18 18 18 17 17 18 17
18 18 18 18 18 18 18 18 18 18 18 17 17 17 17 17 17 17 17 17 17 17 17 17 17 17 17 17 17 17 17 17 17 17 18 18 18 18 18 18 18 18
18 18 18 18 18 18 18 18 18 17 17 17 17 17 17 17 17 17 17 17 17 17 17 17 17 17 17 17 17 17 17 17 17 18 18 18 18 18 18 18 18 18
18 18 18 18 18 18 18 18 18 17 17 17 17 17 17 17 17 17 17 17 17 17 17 17 17 17 17 17 17 18 18 17 18 18 18 18 18 18 19 18 18 18
18 18 18 18 18 18 18 18 17 17 17 17 17 17 17 17 17 17 17 17 17 17 17 17 17 17 17 17 18 18 18 18 18 18 18 19 19 19 19 19 18 18
17 18 18 18 18 18 17 17 17 17 17 17 17 17 17 17 17 17 17 17 17 17 18 18 17 17 17 17 17 18 18 18 18 18 19 19 19 19 19 19 19 18
17 17 17 17 17 17 17 17 17 17 17 17 17 17 17 17 17 17 18 18 18 18 18 18 18 18 18 17 17 17 18 18 18 18 18 18 18 19 19 19 19 18
16 16 17 17 17 16 16 17 17 17 17 17 17 17 17 17 17 17 17 18 18 18 18 18 18 18 18 17 18 17 17 17 17 18 18 18 18 18 18 18 18 18
15 15 16 16 16 16 16 16 16 17 17 17 17 17 17 17 17 17 17 17 17 17 17 17 17 17 17 17 18 18 17 17 17 17 18 18 18 18 18 18 18 18
15 15 15 15 15 15 15 15 16 16 16 17 17 17 17 17 17 17 17 17 17 17 17 16 16 16 17 17 17 17 18 17 17 17 18 18 18 18 18 18 18 18
14 14 14 15 15 15 15 15 15 15 16 16 16 17 17 17 17 17 17 17 17 16 15 15 16 16 16 16 16 17 17 17 17 17 18 18 18 18 18 18 18 18
14 14 14 15 15 15 15 15 14 15 15 15 15 15 16 16 16 16 16 17 16 15 15 15 15 15 16 16 16 16 16 17 17 17 17 18 18 18 18 18 18 18
13 13 13 14 14 14 14 14 14 14 14 14 14 14 14 15 15 15 15 15 14 14 14 14 15 15 15 15 16 16 16 16 17 17 17 17 17 18 18 18 18 18
13 12 12 12 13 13 13 13 13 13 14 14 14 14 14 14 14 13 13 13 13 12 13 13 13 14 15 15 15 15 16 16 17 17 17 17 17 17 17 17 17 17
11 12 11 12 12 12 12 13 13 13 13 13 13 13 13 13 13 12 12 11 11 11 11 12 12 13 13 14 14 15 15 16 16 16 16 16 16 16 16 16 16 17
10 10 10 10 10 11 11 12 12 12 12 12 12 12 12 12 12 12 11 11 11 10 11 11 11 12 12 13 13 14 15 15 15 15 16 16 15 15 15 15 15 15
8 9 9 9 10 10 10 10 11 11 11 11 11 11 11 11 11 11 11 10 10 10 10 10 11 11 12 12 13 13 14 14 14 15 15 15 15 14 15 15 14 14
8 8 8 9 9 9 9 9 10 10 10 11 11 11 10 10 10 10 10 10 10 10 10 10 11 11 11 12 12 13 13 14 14 15 15 14 14 14 14 14 14 14
8 8 8 8 9 9 9 9 9 9 10 10 11 11 10 10 10 10 10 10 10 10 10 10 10 11 12 12 12 13 13 13 14 14 14 14 14 14 14 14 14 13
8 8 8 8 8 8 8 8 8 8 9 10 10 10 10 9 9 9 9 9 9 9 10 10 10 11 11 11 12 12 12 12 13 14 14 13 14 14 14 14 13 13
6 7 7 7 7 7 7 6 6 7 8 8 9 9 8 8 8 8 8 8 9 9 9 9 9 9 10 10 10 11 11 11 11 12 12 12 12 13 13 14 13 13

ECMWFNIL_925_temp_042.txt.gz
Temp
19 19 19 19 19 20 20 20 19 19 19 19 19 19 19 19 19 19 18 18 18 18 18 18 18 17 17 17 18 17 17 17 16 17 17 17 17 17 17 16 17 17
19 20 20 19 20 20 20 20 20 20 20 19 19 19 19 19 19 19 19 18 18 18 18 18 18 17 17 17 17 16 16 17 16 16 17 17 17 17 17 16 16 17
19 19 19 19 20 20 20 20 20 20 20 20 19 19 19 19 19 19 19 19 19 18 18 18 18 18 17 17 17 16 16 16 16 16 17 17 16 16 17 17 17 17
19 19 20 20 20 20 20 20 20 20 19 19 19 18 18 18 18 18 18 19 19 18 18 18 18 18 17 17 17 17 17 16 15 16 16 17 17 16 16 17 17 17
19 20 20 20 20 20 20 20 19 19 19 19 19 18 18 18 18 18 18 19 19 18 18 18 18 18 18 18 18 18 17 15 15 16 15 16 17 17 17 17 17 17
20 20 19 19 19 20 20 19 19 19 19 19 19 19 19 18 19 19 19 19 19 18 18 18 18 18 18 18 18 18 18 17 16 17 16 15 15 16 17 17 16 16
20 19 19 19 19 20 20 20 19 19 19 19 19 19 19 19 19 19 19 19 19 19 19 19 19 18 18 18 18 18 18 17 17 17 17 17 16 16 17 17 16 17
20 20 20 20 20 20 20 19 19 19 19 19 19 19 19 19 19 19 19 19 19 19 19 19 19 18 18 18 18 18 18 18 18 18 18 18 17 17 17 17 17 17
19 20 20 20 20 20 20 19 19 19 19 19 19 19 19 19 19 19 19 19 19 19 19 19 19 18 18 18 18 18 18 18 18 18 18 18 18 18 18 18 18 17
20 20 19 19 20 20 19 19 19 19 19 19 19 19 19 19 19 19 19 19 19 19 19 18 19 18 18 19 19 19 19 19 19 19 19 19 19 19 18 18 18 18
20 20 19 19 19 19 19 19 19 19 19 19 19 19 19 19 19 19 19 19 19 19 19 19 19 19 19 19 19 19 19 19 19 19 19 19 19 19 19 18 18 17
19 19 19 19 19 19 19 19 19 19 19 19 19 19 19 19 19 20 19 19 19 19 19 19 19 19 19 19 19 19 20 20 19 19 19 19 20 20 19 19 19 18
19 19 19 19 19 19 19 19 19 19 19 19 19 19 19 19 19 20 20 20 20 20 19 19 19 19 19 19 19 19 19 19 19 19 20 20 20 20 20 19 19 19
19 19 19 19 19 19 19 19 19 19 19 19 19 19 19 19 19 19 20 20 19 19 18 18 18 18 18 18 18 18 19 19 19 19 19 20 20 20 20 19 19 19
18 18 19 19 19 18 19 19 19 19 19 19 19 19 19 19 19 19 19 19 18 18 18 18 18 18 18 18 18 18 18 18 18 19 19 19 19 19 19 19 19 19
18 17 17 18 19 18 19 18 18 19 19 19 19 19 19 19 19 19 19 18 18 17 18 18 17 17 17 18 18 18 18 18 18 18 19 19 19 19 19 19 19 19
17 16 16 17 18 18 18 18 18 19 19 19 19 19 19 19 19 19 18 17 17 17 17 17 17 17 17 17 17 18 18 18 18 18 18 19 19 19 19 19 19 18
16 16 15 16 17 18 18 17 18 18 18 18 18 18 19 18 18 17 17 16 17 17 17 16 16 17 17 17 17 17 18 18 18 18 18 19 19 19 19 19 19 18
16 16 16 16 17 17 17 16 17 17 17 17 17 18 18 17 16 16 15 16 16 16 16 16 16 16 16 17 17 17 17 18 18 18 18 19 19 19 18 18 18 18
15 15 15 16 16 16 16 16 15 15 15 16 16 16 16 15 15 15 15 15 16 16 15 15 15 16 16 16 17 17 17 17 17 17 18 18 18 18 18 17 18 17
13 13 14 14 14 15 15 15 15 14 14 15 15 15 14 14 14 14 14 14 14 14 14 14 14 14 15 16 16 16 17 17 17 17 17 17 17 17 17 17 17 16
12 12 12 12 13 13 14 14 14 14 14 14 14 14 13 13 13 13 13 12 13 13 13 13 13 13 14 15 15 16 16 16 16 17 17 16 16 17 17 16 16 15
10 10 10 10 11 12 12 12 12 13 13 13 13 13 12 12 12 12 12 11 12 12 12 12 12 12 13 14 14 15 16 16 17 17 16 16 16 16 16 16 15 15
8 8 9 9 9 9 9 10 11 11 11 12 12 12 12 12 11 11 11 11 11 11 11 12 12 12 13 13 14 14 15 15 16 16 16 16 16 16 15 15 15 15
7 7 8 8 8 8 8 9 9 10 10 10 10 11 11 11 11 11 10 10 10 10 11 11 12 12 13 13 13 14 14 14 14 15 15 15 15 15 14 14 14 14
7 7 7 7 8 8 8 8 9 9 9 9 9 10 10 10 10 10 10 10 10 10 10 11 11 11 11 12 13 13 13 13 14 14 13 13 13 13 13 13 12 12

ECMWFNIL_925_temp_045.txt.gz
Temp
18 18 18 18 19 18 18 18 18 18 18 18 18 18 18 18 18 18 18 18 18 17 17 17 16 16 17 17 17 16 16 16 16 17 17 16 16 17 16 17 17 17
18 18 18 18 18 18 18 18 18 18 18 18 18 18 18 18 18 18 18 18 18 17 17 17 17 16 16 17 17 17 16 16 16 17 16 16 16 16 16 16 17 17
19 18 18 18 18 19 18 18 18 18 18 18 18 18 18 18 18 18 18 18 18 18 17 17 17 16 16 17 17 17 16 16 16 17 16 16 16 16 16 16 16 17
19 19 19 19 19 19 19 19 19 19 19 19 19 19 18 18 18 18 18 18 18 18 18 17 17 16 16 16 17 18 17 16 16 16 16 16 16 16 16 16 16 16
19 19 19 19 19 19 19 19 19 19 19 19 19 19 18 18 18 18 18 18 18 18 18 18 17 17 16 16 17 17 17 16 16 16 16 16 16 16 16 17 17 16
19 19 19 19 20 20 19 19 19 19 19 19 19 18 18 18 18 18 18 18 18 18 18 18 18 17 17 17 17 17 17 16 16 16 16 16 16 16 16 16 16 16
19 19 19 20 20 20 19 19 19 19 19 19 18 18 18 18 18 18 18 18 18 18 18 18 18 17 17 18 18 17 17 17 16 16 16 17 17 16 16 16 16 16
19 19 19 19 19 19 19 19 19 19 19 18 18 18 18 18 18 18 18 18 18 18 18 18 18 18 17 17 18 17 17 17 17 17 16 17 17 17 16 16 16 16
19 19 19 19 19 19 19 19 19 19 18 18 18 18 18 19 19 19 19 19 19 18 18 18 18 18 18 18 17 17 17 17 17 17 17 17 17 17 17 16 16 16
19 19 19 19 19 19 19 19 19 19 19 19 19 19 19 19 19 19 19 19 19 19 18 18 18 18 18 18 18 17 17 17 17 17 17 17 17 17 17 17 16 17
18 19 19 19 19 19 19 19 19 19 19 19 19 19 19 19 19 19 19 19 19 19 18 18 18 18 18 18 18 18 18 18 18 18 18 18 17 17 17 17 17 17
17 19 19 19 19 19 19 19 19 19 19 19 19 19 19 19 19 19 19 19 19 18 18 18 18 18 18 18 18 18 19 18 18 18 18 18 18 18 18 17 17 17
15 17 19 19 19 19 19 19 19 19 19 19 19 19 19 19 19 19 19 18 18 18 18 18 18 18 19 18 18 19 19 19 19 19 19 19 18 18 18 18 18 18
15 15 18 19 19 19 19 19 19 19 19 19 19 19 19 19 19 19 18 18 18 18 18 18 18 19 19 18 18 18 19 19 19 19 19 19 19 19 18 18 18 18
15 15 16 17 18 19 19 19 19 19 19 19 19 19 19 19 19 18 18 18 18 18 18 18 18 18 18 18 18 18 18 19 19 19 19 19 18 19 18 18 18 18
15 15 15 15 17 18 19 19 19 19 19 19 19 19 19 19 18 18 18 18 18 18 18 18 18 18 18 18 18 18 18 18 18 19 19 19 18 18 18 18 18 18
15 15 15 15 16 17 18 18 19 19 19 19 19 19 19 18 18 17 17 17 17 17 17 17 17 17 17 18 18 18 18 18 18 18 19 19 19 18 18 18 18 18
14 14 15 15 15 16 17 18 19 18 18 19 19 18 18 17 17 17 17 17 17 17 17 17 17 17 17 17 18 18 18 18 18 18 18 18 18 18 18 18 18 17
14 14 14 14 15 15 16 17 18 18 18 18 18 17 17 17 16 17 16 16 17 17 16 16 16 17 17 17 18 17 17 18 18 18 18 18 18 18 18 17 17 17
14 14 13 14 14 15 15 16 17 17 17 17 17 17 16 16 16 16 16 16 16 16 16 15 15 16 16 17 17 17 17 17 17 17 17 17 17 17 17 17 17 17
12 13 13 13 13 14 14 15 15 16 15 15 15 15 15 15 15 15 15 15 15 15 15 15 14 15 15 16 17 17 17 17 17 17 17 16 16 16 16 16 16 16
9 10 11 12 12 13 13 12 13 14 14 14 14 14 14 14 14 14 14 13 14 15 15 14 14 14 15 15 16 16 16 16 16 16 16 16 15 16 16 15 15 16
7 8 9 10 10 11 11 11 11 12 12 13 13 13 12 12 12 12 12 12 13 13 14 13 13 13 14 15 15 16 16 16 16 15 15 15 15 15 15 15 14 14
7 7 7 8 9 9 9 10 10 11 11 12 12 12 11 11 11 11 11 12 12 12 13 13 13 13 14 14 15 15 16 15 15 15 14 14 14 13 14 14 13 13
7 7 7 8 8 8 8 9 9 10 10 11 11 11 11 10 11 11 11 11 11 11 12 12 12 12 13 14 14 14 14 14 14 14 13 12 12 12 12 12 12 12
7 7 7 7 8 8 8 8 9 9 9 10 10 10 10 10 10 10 10 10 10 10 11 11 12 12 12 13 13 14 13 13 13 13 12 11 11 11 11 11 11 11